Location: Newark
(58.8333°N, 23.5833°E)
Time: 13:00:29
(UTC+00:00)

A-11 Canister half - Pass Details

Date: 20 November 2019
Orbit: 1515 x 1684 km, 47.2° (Epoch: 14 December)

Event Time Altitude Azimuth Distance (km) Brightness Sun altitude
Rises 19:46:52 0° 264° (W) 4,933 12.1 -43.1°
Reaches altitude 10° 19:50:16 10° 258° (WSW) 3,950 11.4 -43.4°
Enters shadow 19:55:14 29° 237° (WSW) 2,734 10.3 -43.9°
Maximum altitude 19:59:26 41° 194° (SSW) 2,294 - -44.3°
Drops below altitude 10° 20:08:30 10° 129° (SE) 3,908 - -45.1°
Sets 20:11:51 0° 122° (ESE) 4,876 - -45.4°
